Flag for New Zealand Weather past 2 weeks in Taupo, New Zealand

Now
59 °F

Passing clouds.


Feels Like: 60 °F
Forecast: 56 / 72 °F
Wind: 3 mph from Northeast

Location: Auckland Airport

Current Time: Dec 19, 2014 at 5:09:59 AM

Latest Report: Dec 19, 2014 at 4:30 AM


Visibility: 6 mi

Pressure: 30.04 "Hg

Humidity: 100%

Dew point: 59 °F

Location of TaupoLocation

Historic Weather in Taupo — Graph

°F

Taupo temperature yesterday

Maximum temperature yesterday: 72 °F (at 2:30 PM)
Minimum temperature yesterday: 63 °F (at 10:30 PM)
Average temperature yesterday: 67 °F

Past Weeks' High & Low Weather Summary

 TemperatureHumidityPressure
High75 °F (Dec 10, 1:30 PM)100% (Dec 6, 4:30 AM)30.27 "Hg (Dec 6, 4:30 AM)
Low57 °F (Dec 4, 4:00 AM)57% (Dec 10, 12:30 PM)29.68 "Hg (Dec 14, 5:00 PM)
Average64 °F82%29.99 "Hg
* Reported Dec 4 4:00 AM — Dec 19 4:00 AM, Taupo, Weather by CustomWeather, © 2014

Note: Actual official high and low records may vary slightly from our data, if they occured in-between our weather recording intervals... More about our weather records

Advertising

Taupo weather history for previous 24 hours

 ConditionsComfort  
Time TempWeatherWind HumidityBarometerVisibility
4:00 AM
Dec 19
59 °FPassing clouds.3 mph100%30.04 "HgN/A
3:30 AM61 °FPassing clouds.3 mph94%30.04 "HgN/A
3:00 AM61 °FOvercast.2 mph100%30.04 "HgN/A
2:30 AM63 °FPassing clouds.2 mph94%30.04 "HgN/A
2:00 AM63 °FPassing clouds.3 mph94%30.07 "HgN/A
1:30 AM64 °FOvercast.2 mph94%30.07 "HgN/A
1:00 AM64 °FPassing clouds.2 mph94%30.07 "HgN/A
12:30 AM63 °FOvercast.3 mph94%30.07 "HgN/A
12:00 AM63 °FPassing clouds.5 mph94%30.07 "HgN/A
11:30 PM
Dec 18
63 °FPassing clouds.5 mph94%30.07 "HgN/A
11:00 PM63 °FPassing clouds.5 mph88%30.07 "HgN/A
10:30 PM63 °FPassing clouds.5 mph88%30.07 "HgN/A
10:00 PM64 °FPassing clouds.7 mph88%30.04 "HgN/A
9:30 PM66 °FOvercast.8 mph83%30.04 "HgN/A
9:00 PM66 °FOvercast.6 mph78%30.04 "HgN/A
8:30 PM66 °FOvercast.9 mph78%30.04 "HgN/A
8:00 PM66 °FOvercast.9 mph83%30.01 "HgN/A
7:30 PM66 °FOvercast.12 mph83%30.01 "HgN/A
7:00 PM68 °FOvercast.12 mph78%30.01 "HgN/A
6:30 PM70 °FOvercast.16 mph73%29.98 "HgN/A
6:00 PM68 °FOvercast.17 mph78%29.98 "HgN/A
5:30 PM70 °FOvercast.15 mph73%29.98 "HgN/A
4:30 PM72 °FBroken clouds.15 mph73%29.98 "HgN/A
4:00 PM72 °FOvercast.13 mph69%29.98 "HgN/A
3:30 PM72 °FOvercast.15 mph65%29.98 "HgN/A
3:00 PM72 °FPartly sunny.15 mph69%29.98 "HgN/A
2:30 PM72 °FBroken clouds.14 mph73%29.98 "HgN/A
2:00 PM70 °FMostly cloudy.13 mph73%29.95 "HgN/A
1:30 PM70 °FMostly cloudy.12 mph78%29.98 "HgN/A
1:00 PM68 °FMore clouds than sun.13 mph78%29.98 "HgN/A
12:30 PM68 °FPartly sunny.12 mph83%29.98 "HgN/A
12:00 PM68 °FMostly cloudy.14 mph78%29.95 "HgN/A
11:30 AM68 °FPartly sunny.14 mph78%29.95 "HgN/A
11:00 AM70 °FBroken clouds.12 mph83%29.95 "HgN/A
10:30 AM68 °FPartly sunny.12 mph83%29.95 "HgN/A
10:00 AM68 °FBroken clouds.10 mph88%29.95 "HgN/A
9:30 AM66 °FBroken clouds.12 mph94%29.95 "HgN/A
9:00 AM66 °FPartly sunny.10 mph88%29.92 "HgN/A
8:30 AM66 °FMostly cloudy.8 mph94%29.92 "HgN/A
8:00 AM64 °FLight rain. Partly sunny.5 mph94%29.92 "Hg3 mi
7:30 AM64 °FMostly cloudy.6 mph94%29.89 "HgN/A
7:00 AM64 °FMostly cloudy.7 mph94%29.89 "HgN/A
6:30 AM64 °FOvercast.9 mph94%29.86 "HgN/A
6:00 AM64 °FOvercast.9 mph94%29.86 "HgN/A
5:30 AM64 °FOvercast.12 mph94%29.86 "HgN/A
5:00 AM64 °FOvercast.10 mph94%29.83 "HgN/A
Weather by CustomWeather, © 2014

See weather overviewHow to use our weather pages